Regional Weather Roundup
Issued by NWS Newport/Morehead, NC

Current Version | Previous Version | Graphics & Text | Print | Product List | Glossary Off
Versions: 1 2 3 4 5 6 7 8 9 10 11 12 13 14 15 16 17 18 19 20 21 22 23 24 25 26 27 28 29 30 31 32 33 34 35 36 37 38 39 40 41 42 43 44 45 46 47 48 49 50
000 ASUS42 KMHX 290412 RWRMHX WEATHER ROUNDUP FOR EASTERN NORTH CAROLINA NATIONAL WEATHER SERVICE NEWPORT/MOREHEAD CITY NC 1200 AM EDT SUN MAR 29 2015 NOTE: "FAIR" INDICATES FEW OR NO CLOUDS BELOW 12,000 FEET WITH NO SIGNIFICANT WEATHER AND/OR OBSTRUCTIONS TO VISIBILITY NCZ015>017-031-032-045>047-102-103-290500- NORTH COAST CITY SKY/WX TMP DP RH WIND PRES REMARKS EDENTON CLEAR 33 17 52 N12 30.26R ELIZABETH CITY CLEAR 33 16 49 N15 30.25R KITTY HAWK CLEAR 35 16 47 NW9 30.22R MANTEO CLEAR 35 18 50 N17G24 30.24R $$ NCZ045>047-081-094-103-104-290500- CENTRAL COAST CITY SKY/WX TMP DP RH WIND PRES REMARKS FRISCO CLEAR 39 18 42 VRB7 30.21R SWANQUARTER N/A N/A N/A N/A N2 30.21R $$ NCZ095-097-098-100-101-290500- SOUTHERN COAST CITY SKY/WX TMP DP RH WIND PRES REMARKS BEAUFORT CLEAR 37 25 61 N9 30.23R CEDAR ISLAND N/A 43 N/A N/A NW18G24 30.27R JACKSONVILLE CLEAR 38 16 40 N15G22 30.24R PINEY ISLAND CLEAR N/A N/A N/A N9 30.23R WILMINGTON CLEAR 37 27 67 CALM 30.24R $$ NCZ011>013-027>030-043-044-078>080-089-090>093-098-290500- COASTAL PLAIN CITY SKY/WX TMP DP RH WIND PRES REMARKS AHOSKIE CLEAR 30 14 51 N5 30.28R CLINTON CLEAR 38 16 42 N6 30.27R ELIZABETHTOWN CLEAR 37 21 50 N5 30.26R GOLDSBORO CLEAR 37 17 45 NW8 30.24R GREENVILLE CLEAR 34 19 55 N7 30.27R HAVELOCK CLEAR 39 24 55 N8 30.25R KENANSVILLE CLEAR 36 17 46 N5 30.27R KINSTON CLEAR 35 17 49 NW6 30.26R NEW BERN CLEAR 37 19 48 N6 30.25R RICHLANDS CLEAR 36 16 44 N6 30.25R ROCKY MOUNT CLEAR 34 14 43 N10 30.28R WASHINGTON CLEAR 33 20 58 N9 30.26R WHITEVILLE CLEAR 37 30 74 CALM 30.24R $$ AMZ130-135-150-152-154-156-158-170-250-252-270-ANZ085-086-088-633-658-670-290500- MARINE OBSERVATIONS STATION/POSITION TIME TEMP WIND PRES WAVE SWELL AIR SEA DIR/SP/G HT/PER HT/PER (UTC) (F) (DEG/KT/KT) (MB) (FT/S) (FT/S) CHESAPEAKE LIGHT 0300 34 330/ 26/ 28 1023.5 64 E VA BEACH 0350 37 56 330/ 21/ 27 1022.1 6/ 6 2/ 9 DUCK 0300 36 42 350/ 22/ 24 1021.7 2 E DUCK 0311 41 N/A 5/ 5 10 NE DUCK NOT AVBL OREGON INLET 0300 37 46 350/ 13/ 18 1022.6 HATTERAS CG 0300 360/ 14/ 17 1022.8 CAPE LOOKOUT 0400 42 360/ 12/ 16 1023.2 BEAUFORT LAB 0300 42 55 20/ 5/ 8 1021.6 27 SE WRIGHTSVLE 0300 46 65 360/ 16/ 17 1023.9 5 SE WRIGHTSVLE 0300 48 56 20/ 17/ 19 1022.9 225 S CAPE HAT 0350 59 68 310/ 21/ 25 1020.0 10/ 8 5/12 41 SE CHARLESTON 0350 56 68 340/ 16/ 19 1022.2 5/ 4 2/10 $$

USA.gov is the U.S. government's official web portal to all federal, state and local government web resources and services.